N752ER KFLL-MUHA

Flight info

Callsign N752ER
Flight time N/A
Altitude 38000
Route MAYNR3 FUNDI M335 JABIR R628 UVA DUTAN1A
Aircraft CL60/M-SBDE1E2E3FGHIJ1J4J5J7M3RWXYZ/LB1V1D1

Departure

Time 2026-05-03 21:51
Airport Fort Lauderdale Hollywood International Airport (KFLL)

Arrival

Time N/A
Airport José Martí International Airport (MUHA)
Time Latitude Longitude Altitude Speed Heading
2026-05-03 20:32 26.07280 -80.15646 11 ft 0 kts 136°
2026-05-03 21:19 26.07285 -80.15617 11 ft 12 kts 32°
2026-05-03 21:19 26.07370 -80.15640 11 ft 13 kts 313°
2026-05-03 21:19 26.07430 -80.15707 11 ft 9 kts 315°
2026-05-03 21:20 26.07468 -80.15747 11 ft 12 kts 314°
2026-05-03 21:20 26.07495 -80.15861 11 ft 12 kts 270°
2026-05-03 21:20 26.07494 -80.15919 11 ft 10 kts 270°
2026-05-03 21:20 26.07495 -80.15983 11 ft 7 kts 269°
2026-05-03 21:21 26.07495 -80.16034 11 ft 4 kts 270°
2026-05-03 21:21 26.07495 -80.16093 11 ft 6 kts 270°
2026-05-03 21:21 26.07495 -80.16128 11 ft 6 kts 270°
2026-05-03 21:21 26.07496 -80.16184 11 ft 10 kts 270°
2026-05-03 21:22 26.07496 -80.16234 11 ft 0 kts 271°
2026-05-03 21:24 26.07496 -80.16241 11 ft 5 kts 270°
2026-05-03 21:24 26.07497 -80.16311 11 ft 8 kts 270°
2026-05-03 21:24 26.07497 -80.16331 11 ft 0 kts 270°
2026-05-03 21:30 26.07497 -80.16332 11 ft 0 kts 270°
2026-05-03 21:31 26.07497 -80.16338 11 ft 3 kts 270°
2026-05-03 21:31 26.07497 -80.16367 11 ft 0 kts 270°
2026-05-03 21:31 26.07497 -80.16379 11 ft 2 kts 270°
2026-05-03 21:32 26.07497 -80.16388 11 ft 0 kts 270°
2026-05-03 21:32 26.07497 -80.16393 11 ft 1 kts 270°
2026-05-03 21:32 26.07497 -80.16415 11 ft 6 kts 270°
2026-05-03 21:32 26.07497 -80.16440 11 ft 0 kts 269°
2026-05-03 21:33 26.07497 -80.16443 11 ft 1 kts 270°
2026-05-03 21:33 26.07497 -80.16447 11 ft 0 kts 270°
2026-05-03 21:34 26.07497 -80.16456 11 ft 0 kts 271°
2026-05-03 21:34 26.07497 -80.16463 11 ft 3 kts 270°
2026-05-03 21:34 26.07497 -80.16472 11 ft 0 kts 270°
2026-05-03 21:34 26.07497 -80.16482 11 ft 0 kts 270°
2026-05-03 21:37 26.07497 -80.16483 11 ft 1 kts 270°
2026-05-03 21:37 26.07497 -80.16493 11 ft 3 kts 270°
2026-05-03 21:38 26.07497 -80.16496 11 ft 0 kts 270°
2026-05-03 21:38 26.07498 -80.16517 11 ft 3 kts 271°
2026-05-03 21:38 26.07498 -80.16519 11 ft 0 kts 271°
2026-05-03 21:43 26.07498 -80.16526 11 ft 1 kts 270°
2026-05-03 21:43 26.07498 -80.16557 11 ft 5 kts 270°
2026-05-03 21:43 26.07498 -80.16591 11 ft 0 kts 271°
2026-05-03 21:45 26.07499 -80.16613 11 ft 10 kts 275°
2026-05-03 21:46 26.07506 -80.16637 11 ft 0 kts 322°
2026-05-03 21:46 26.07509 -80.16639 11 ft 3 kts 328°
2026-05-03 21:46 26.07541 -80.16644 11 ft 2 kts
2026-05-03 21:46 26.07550 -80.16644 11 ft 0 kts
2026-05-03 21:47 26.07557 -80.16644 11 ft 4 kts
2026-05-03 21:47 26.07594 -80.16643 11 ft 4 kts
2026-05-03 21:48 26.07600 -80.16643 11 ft 0 kts
2026-05-03 21:49 26.07612 -80.16643 11 ft 7 kts
2026-05-03 21:49 26.07680 -80.16640 11 ft 4 kts 18°
2026-05-03 21:49 26.07694 -80.16611 11 ft 0 kts 90°
2026-05-03 21:50 26.07694 -80.16606 11 ft 5 kts 89°
2026-05-03 21:50 26.07692 -80.16215 11 ft 104 kts 90°
2026-05-03 21:51 26.07678 -80.15083 297 ft 171 kts 90°
2026-05-03 21:51 26.07643 -80.13673 1103 ft 200 kts 90°
2026-05-03 21:51 26.07634 -80.12101 2124 ft 203 kts 89°
2026-05-03 21:51 26.07731 -80.10445 2997 ft 225 kts 75°
2026-05-03 21:52 26.08231 -80.08798 3712 ft 227 kts 66°
2026-05-03 21:52 26.09133 -80.07325 3960 ft 243 kts 40°
2026-05-03 21:52 26.10705 -80.06390 3983 ft 267 kts 19°
2026-05-03 21:52 26.12450 -80.05700 3981 ft 267 kts 19°
2026-05-03 21:53 26.14232 -80.05014 3987 ft 267 kts 14°
2026-05-03 21:53 26.16089 -80.04902 3996 ft 265 kts 348°
2026-05-03 21:53 26.17862 -80.05497 3993 ft 264 kts 339°
2026-05-03 21:53 26.20175 -80.06400 3996 ft 264 kts 340°
2026-05-03 21:54 26.21309 -80.06954 3996 ft 263 kts 328°
2026-05-03 21:54 26.22636 -80.08323 4000 ft 263 kts 304°
2026-05-03 21:54 26.23438 -80.10194 3997 ft 262 kts 291°
2026-05-03 21:54 26.24106 -80.12085 3994 ft 262 kts 292°
2026-05-03 21:55 26.24777 -80.13963 3997 ft 259 kts 292°
2026-05-03 21:55 26.25384 -80.15864 3998 ft 261 kts 282°
2026-05-03 21:55 26.25510 -80.17912 3994 ft 263 kts 271°
2026-05-03 21:55 26.25533 -80.19961 3994 ft 263 kts 272°
2026-05-03 21:56 26.25562 -80.22017 3995 ft 264 kts 271°
2026-05-03 21:56 26.25592 -80.24071 3993 ft 263 kts 272°
2026-05-03 21:56 26.25621 -80.26107 3993 ft 262 kts 272°
2026-05-03 21:56 26.25651 -80.28137 3994 ft 263 kts 271°
2026-05-03 21:57 26.25680 -80.30186 3993 ft 263 kts 271°
2026-05-03 21:57 26.25709 -80.32224 3993 ft 262 kts 271°
2026-05-03 21:57 26.25739 -80.34304 3990 ft 262 kts 271°
2026-05-03 21:57 26.25767 -80.36334 3993 ft 263 kts 272°
2026-05-03 21:58 26.25796 -80.38393 3993 ft 263 kts 272°
2026-05-03 21:58 26.25825 -80.40443 3993 ft 262 kts 271°
2026-05-03 21:58 26.25853 -80.42497 4019 ft 275 kts 271°
2026-05-03 21:58 26.25882 -80.44689 5070 ft 290 kts 270°
2026-05-03 21:59 26.25911 -80.46809 6947 ft 276 kts 270°
2026-05-03 21:59 26.25938 -80.48919 8089 ft 280 kts 270°
2026-05-03 21:59 26.25966 -80.51101 8698 ft 285 kts 270°
2026-05-03 21:59 26.25995 -80.53331 9740 ft 290 kts 270°
2026-05-03 22:00 26.26023 -80.55508 11278 ft 285 kts 270°
2026-05-03 22:00 26.26051 -80.57649 12698 ft 281 kts 269°
2026-05-03 22:00 26.26078 -80.59831 13929 ft 284 kts 269°
2026-05-03 22:00 26.26105 -80.62026 15020 ft 289 kts 269°
2026-05-03 22:01 26.26131 -80.64282 15646 ft 297 kts 270°
2026-05-03 22:01 26.26086 -80.66615 15913 ft 296 kts 260°
2026-05-03 22:01 26.25330 -80.68713 15986 ft 296 kts 235°
2026-05-03 22:01 26.23744 -80.70193 15986 ft 302 kts 209°
2026-05-03 22:02 26.21652 -80.70684 15982 ft 313 kts 183°
2026-05-03 22:02 26.19451 -80.70299 15972 ft 319 kts 173°
2026-05-03 22:02 26.17287 -80.69761 15973 ft 319 kts 173°
2026-05-03 22:02 26.15079 -80.69211 15973 ft 319 kts 173°
2026-05-03 22:03 26.12915 -80.68671 15972 ft 319 kts 173°
2026-05-03 22:03 26.10716 -80.68113 15972 ft 320 kts 173°
2026-05-03 22:03 26.08543 -80.67566 15975 ft 320 kts 173°
2026-05-03 22:03 26.06356 -80.67347 15974 ft 309 kts 192°
2026-05-03 22:04 26.04221 -80.67755 15964 ft 307 kts 195°
2026-05-03 22:04 26.02099 -80.68186 15965 ft 313 kts 195°
2026-05-03 22:04 25.99871 -80.68638 15968 ft 327 kts 195°
2026-05-03 22:04 25.97611 -80.69089 15965 ft 324 kts 195°
2026-05-03 22:05 25.95369 -80.69535 15967 ft 322 kts 195°
2026-05-03 22:05 25.93171 -80.69971 15965 ft 321 kts 195°
2026-05-03 22:05 25.90957 -80.70412 15969 ft 322 kts 195°
2026-05-03 22:05 25.88662 -80.70873 16448 ft 339 kts 195°
2026-05-03 22:06 25.86373 -80.71324 17830 ft 330 kts 195°
2026-05-03 22:06 25.84142 -80.71763 19141 ft 322 kts 196°
2026-05-03 22:06 25.81978 -80.72201 20144 ft 322 kts 198°
2026-05-03 22:06 25.79806 -80.73119 20237 ft 340 kts 217°
2026-05-03 22:07 25.78129 -80.75018 20503 ft 351 kts 242°
2026-05-03 22:07 25.77288 -80.77441 21817 ft 337 kts 253°
2026-05-03 22:07 25.76640 -80.79842 23267 ft 321 kts 253°
2026-05-03 22:07 25.76000 -80.82184 24413 ft 314 kts 253°
2026-05-03 22:08 25.75364 -80.84512 25273 ft 316 kts 253°
2026-05-03 22:08 25.74729 -80.86835 25993 ft 320 kts 253°
2026-05-03 22:08 25.74083 -80.89202 26712 ft 324 kts 253°
2026-05-03 22:08 25.73420 -80.91623 27427 ft 327 kts 252°
2026-05-03 22:09 25.72757 -80.94049 28072 ft 331 kts 252°
2026-05-03 22:09 25.72083 -80.96510 28742 ft 334 kts 252°
2026-05-03 22:09 25.71412 -80.98957 29384 ft 336 kts 252°
2026-05-03 22:10 25.70019 -81.04035 29982 ft 358 kts 252°
2026-05-03 22:10 25.69274 -81.06750 29989 ft 374 kts 252°
2026-05-03 22:10 25.68494 -81.09589 29984 ft 390 kts 253°
2026-05-03 22:10 25.67695 -81.12498 29980 ft 403 kts 253°
2026-05-03 22:11 25.66864 -81.15520 29978 ft 413 kts 252°
2026-05-03 22:11 25.65133 -81.21672 29980 ft 417 kts 249°
2026-05-03 22:11 25.63768 -81.24487 29987 ft 417 kts 236°
2026-05-03 22:12 25.61779 -81.26843 29981 ft 420 kts 225°
2026-05-03 22:12 25.57418 -81.31181 30020 ft 417 kts 226°
2026-05-03 22:12 25.55393 -81.33453 30193 ft 413 kts 231°
2026-05-03 22:13 25.53672 -81.36012 30304 ft 413 kts 240°
2026-05-03 22:13 25.52511 -81.38929 30159 ft 418 kts 254°
2026-05-03 22:13 25.52174 -81.42175 29610 ft 428 kts 270°
2026-05-03 22:13 25.52922 -81.45342 28530 ft 440 kts 291°
2026-05-03 22:14 25.54862 -81.47986 26846 ft 469 kts 316°
2026-05-03 22:14 25.57915 -81.49490 24803 ft 506 kts 344°
2026-05-03 22:14 25.61461 -81.49137 22939 ft 532 kts 16°
2026-05-03 22:14 25.64432 -81.46706 21573 ft 544 kts 51°
2026-05-03 22:15 25.65694 -81.42889 20572 ft 532 kts 89°
2026-05-03 22:15 25.64705 -81.39104 19444 ft 505 kts 129°
2026-05-03 22:15 25.61981 -81.37062 17949 ft 476 kts 172°